Location: San Martino di Castrozza
(46.2667°N, 11.8000°E)
Time: 03:06:28
(UTC+00:00)

CZ-4C R/B - Pass Details

Date: 23 April 2021
Orbit: 612 x 1390 km, 63.4° (Epoch: 14 May)

Event Time Altitude Azimuth Distance (km) Brightness Sun altitude
Rises 00:21:00 0° 321° (NW) 3,774 6.0 -29.1°
Reaches altitude 10° 00:23:28 10° 324° (NW) 2,925 5.4 -29.0°
Maximum altitude 00:30:35 71° 48° (NE) 1,294 3.1 -28.5°
Drops below altitude 10° 00:38:55 10° 132° (SE) 3,388 5.1 -28.0°
Sets 00:41:57 0° 135° (SE) 4,403 5.7 -27.7°
